Eagle River, WI

2:35 PM CDT on September 26, 2017 (GMT -0500)
Eagle River Union

Weather History for KEGV - October, 2013

Change the Weather History Date:

Friday, October 25, 2013

  Actual Average Record
Temperature  
Mean Temperature 34 °F -  
Max Temperature 46 °F 54 °F 62 °F (1991)
Min Temperature 23 °F 34 °F 19 °F (2006)
Degree Days  
Heating Degree Days 32    
Moisture  
Dew Point 26 °F    
Average Humidity 74    
Maximum Humidity 100    
Minimum Humidity 49    
Precipitation  
Precipitation 0.01 in - - ()
Sea Level Pressure  
Sea Level Pressure 30.00 in    
Wind  
Wind Speed 8 mph (SW)    
Max Wind Speed 17 mph    
Max Gust Speed 26 mph    
Visibility 10 miles    
Events Rain    
Averages and records for this station are not official NWS values.
T = Trace of Precipitation, MM = Missing Value Source: NWS Daily Summary

Daily Weather History Graph

Daily Weather History Graph

Search for Another Location

Airport or City:

Trip Planner

Search our weather history database for the weather conditions in past years. The results will help you decide how hot, cold, wet, or windy it might be!

Date:

Astronomy

Oct. 25, 2013 Rise Set
Actual Time 7:27 AM CDT 5:53 PM CDT
Civil Twilight 6:57 AM CDT 6:24 PM CDT
Nautical Twilight 6:22 AM CDT 6:59 PM CDT
Astronomical Twilight 5:47 AM CDT 7:33 PM CDT
Moon 11:08 PM CDT (10/25) 1:13 PM CDT (10/25)
Length of Visible Light 11h 26m
Length of Day
10h 25m
Waning Gibbous, 62% of the Moon is Illuminated
Oct 25
Waning Gibbous
Oct 26
Last Quarter
Nov 3
New
Nov 9
First Quarter
Nov 17
Full

Hourly Weather History & Observations

Time (CDT) Temp. Windchill Dew Point Humidity Pressure Visibility Wind Dir Wind Speed Gust Speed Precip Events Conditions
12:15 AM 30.0 °F 25.2 °F 24.8 °F 81% 30.18 in 10.0 mi West 4.6 mph - N/A   Mostly Cloudy
12:35 AM 29.3 °F 23.2 °F 24.4 °F 82% 30.18 in 10.0 mi West 5.8 mph - N/A   Mostly Cloudy
12:55 AM 28.9 °F 22.8 °F 24.6 °F 84% 30.18 in 10.0 mi West 5.8 mph - N/A   Clear
1:15 AM 29.1 °F 23.0 °F 25.0 °F 85% 30.18 in 10.0 mi West 5.8 mph - N/A   Scattered Clouds
1:35 AM 28.9 °F 22.8 °F 25.0 °F 85% 30.18 in 10.0 mi West 5.8 mph - N/A   Clear
1:55 AM 25.7 °F 19.0 °F 23.0 °F 89% 30.19 in 10.0 mi WSW 5.8 mph - N/A   Clear
2:15 AM 25.9 °F 19.2 °F 25.5 °F 99% 30.19 in 10.0 mi WSW 5.8 mph - N/A   Clear
2:35 AM 24.8 °F 17.9 °F 24.8 °F 100% 30.20 in 10.0 mi WSW 5.8 mph - N/A   Clear
2:55 AM 25.7 °F 19.0 °F 25.7 °F 100% 30.20 in 10.0 mi WSW 5.8 mph - N/A   Clear
3:15 AM 25.2 °F 19.5 °F 25.2 °F 100% 30.20 in 10.0 mi WSW 4.6 mph - N/A   Clear
3:35 AM 25.3 °F 19.7 °F 25.3 °F 100% 30.20 in 10.0 mi WSW 4.6 mph - N/A   Clear
3:55 AM 25.5 °F 21.3 °F 25.5 °F 100% 30.19 in 10.0 mi WSW 3.5 mph - N/A   Clear
4:15 AM 26.2 °F 22.1 °F 26.2 °F 100% 30.19 in 10.0 mi WSW 3.5 mph - N/A   Clear
4:35 AM 25.0 °F 18.1 °F 25.0 °F 100% 30.19 in 10.0 mi SW 5.8 mph - N/A   Clear
4:55 AM 23.0 °F 15.8 °F 23.0 °F 100% 30.20 in 10.0 mi WSW 5.8 mph - N/A   Clear
5:15 AM 23.0 °F 15.8 °F 23.0 °F 100% 30.20 in 10.0 mi WSW 5.8 mph - N/A   Clear
5:35 AM 23.4 °F 16.2 °F 23.4 °F 100% 30.20 in 10.0 mi WSW 5.8 mph - N/A   Clear
5:55 AM 23.0 °F 15.8 °F 23.0 °F 100% 30.21 in 10.0 mi WSW 5.8 mph - N/A   Clear
6:15 AM 24.1 °F 19.7 °F 24.1 °F 100% 30.21 in 10.0 mi West 3.5 mph - N/A   Clear
6:35 AM 25.0 °F 20.7 °F 25.0 °F 100% 30.20 in 10.0 mi WSW 3.5 mph - N/A   Clear
6:55 AM 24.8 °F 20.5 °F 24.8 °F 100% 30.20 in 10.0 mi SW 3.5 mph - N/A   Clear
7:15 AM 24.6 °F 18.8 °F 24.6 °F 100% 30.20 in 10.0 mi SW 4.6 mph - N/A   Clear
7:35 AM 24.4 °F 18.6 °F 24.4 °F 100% 30.20 in 10.0 mi WSW 4.6 mph - N/A   Clear
7:55 AM 24.4 °F 17.5 °F 24.4 °F 100% 30.20 in 10.0 mi SW 5.8 mph - N/A   Clear
8:15 AM 25.7 °F 20.1 °F 25.7 °F 100% 30.20 in 10.0 mi WSW 4.6 mph - N/A   Clear
8:35 AM 28.4 °F 22.2 °F 28.4 °F 100% 30.19 in 10.0 mi SW 5.8 mph - N/A   Clear
8:55 AM 29.7 °F 23.7 °F 29.1 °F 98% 30.18 in 10.0 mi WSW 5.8 mph - N/A   Clear
9:15 AM 31.3 °F 25.6 °F 30.6 °F 97% 30.18 in 10.0 mi WSW 5.8 mph - N/A   Clear
9:35 AM 32.0 °F 26.4 °F 30.6 °F 94% 30.17 in 10.0 mi WSW 5.8 mph - N/A   Clear
9:55 AM 33.1 °F 26.9 °F 31.1 °F 92% 30.17 in 10.0 mi SW 6.9 mph - N/A   Clear
10:15 AM 34.0 °F 26.6 °F 29.5 °F 84% 30.15 in 10.0 mi WSW 9.2 mph - 0.01 in   Clear
10:35 AM 34.7 °F 28.8 °F 28.8 °F 79% 30.15 in 10.0 mi SW 6.9 mph - 0.01 in   Clear
10:55 AM 35.8 °F 28.8 °F 27.1 °F 71% 30.14 in 10.0 mi SW 9.2 mph - 0.01 in   Clear
11:15 AM 37.4 °F 30.8 °F 26.1 °F 64% 30.13 in 10.0 mi SW 9.2 mph - N/A   Scattered Clouds
11:35 AM 38.3 °F 30.9 °F 25.5 °F 60% 30.12 in 10.0 mi WSW 11.5 mph 18.4 mph N/A   Mostly Cloudy
11:55 AM 37.4 °F 28.5 °F 23.2 °F 57% 30.11 in 10.0 mi WSW 15.0 mph 20.7 mph N/A   Overcast
12:15 PM 38.3 °F 29.0 °F 22.1 °F 52% 30.10 in 10.0 mi WSW 17.3 mph 21.9 mph N/A   Overcast
12:35 PM 37.4 °F 28.2 °F 22.5 °F 55% 30.09 in 10.0 mi WSW 16.1 mph 20.7 mph N/A   Overcast
12:55 PM 38.3 °F 30.1 °F 22.6 °F 53% 30.08 in 10.0 mi WSW 13.8 mph - N/A   Mostly Cloudy
1:15 PM 38.3 °F 29.3 °F 21.6 °F 51% 30.05 in 10.0 mi WSW 16.1 mph - N/A   Mostly Cloudy
1:35 PM 39.2 °F 31.6 °F 21.7 °F 50% 30.04 in 10.0 mi SW 12.7 mph 17.3 mph N/A   Scattered Clouds
1:55 PM 38.8 °F 30.4 °F 21.2 °F 49% 30.01 in 10.0 mi SW 15.0 mph 19.6 mph N/A   Scattered Clouds
2:15 PM 38.8 °F 31.6 °F 21.2 °F 49% 30.00 in 10.0 mi SW 11.5 mph 20.7 mph N/A   Mostly Cloudy
2:35 PM 39.4 °F 32.3 °F 22.1 °F 50% 29.98 in 10.0 mi SW 11.5 mph 18.4 mph N/A   Mostly Cloudy
2:55 PM 39.4 °F 32.7 °F 22.6 °F 51% 29.96 in 10.0 mi SSW 10.4 mph 19.6 mph N/A   Mostly Cloudy
3:15 PM 39.4 °F 33.2 °F 22.6 °F 51% 29.94 in 10.0 mi SSW 9.2 mph 21.9 mph N/A   Mostly Cloudy
3:35 PM 39.4 °F 32.3 °F 22.8 °F 52% 29.93 in 10.0 mi SSW 11.5 mph 21.9 mph N/A   Mostly Cloudy
3:55 PM 39.9 °F 33.9 °F 23.2 °F 51% 29.90 in 10.0 mi SSW 9.2 mph 19.6 mph N/A   Mostly Cloudy
4:15 PM 39.9 °F 32.9 °F 23.4 °F 52% 29.87 in 10.0 mi SSW 11.5 mph 20.7 mph N/A   Mostly Cloudy
4:35 PM 39.4 °F 33.2 °F 23.0 °F 52% 29.84 in 10.0 mi SSW 9.2 mph 18.4 mph N/A   Overcast
4:55 PM 39.4 °F 32.3 °F 23.4 °F 53% 29.83 in 10.0 mi SSW 11.5 mph 21.9 mph N/A   Overcast
5:15 PM 39.2 °F 34.2 °F 23.9 °F 54% 29.81 in 10.0 mi SSW 6.9 mph 16.1 mph N/A   Overcast
5:35 PM 39.2 °F 32.5 °F 24.6 °F 56% 29.79 in 10.0 mi SSW 10.4 mph 19.6 mph N/A   Overcast
5:55 PM 39.4 °F 32.7 °F 25.2 °F 57% 29.76 in 10.0 mi SSW 10.4 mph 20.7 mph N/A   Overcast
6:15 PM 40.1 °F 33.6 °F 25.7 °F 56% 29.76 in 10.0 mi SW 10.4 mph 19.6 mph N/A   Overcast
6:35 PM 40.3 °F 33.9 °F 26.4 °F 58% 29.75 in 10.0 mi SW 10.4 mph 21.9 mph N/A   Overcast
6:55 PM 40.6 °F 34.8 °F 27.0 °F 58% 29.73 in 10.0 mi SSW 9.2 mph 19.6 mph N/A   Overcast
7:15 PM 41.2 °F 35.5 °F 27.5 °F 58% 29.73 in 10.0 mi SW 9.2 mph 18.4 mph N/A   Overcast
7:35 PM 42.1 °F 34.9 °F 27.9 °F 57% 29.72 in 10.0 mi SW 13.8 mph 23.0 mph N/A   Overcast
7:55 PM 42.3 °F 35.5 °F 28.6 °F 58% 29.71 in 10.0 mi SW 12.7 mph 20.7 mph N/A Rain Light Rain
8:15 PM 43.0 °F 36.8 °F 28.4 °F 56% 29.70 in 10.0 mi WSW 11.5 mph 23.0 mph N/A   Overcast
8:35 PM 43.5 °F 36.7 °F 28.8 °F 56% 29.69 in 10.0 mi SW 13.8 mph 24.2 mph N/A   Overcast
8:55 PM 43.9 °F 36.2 °F 29.3 °F 57% 29.67 in 10.0 mi SW 17.3 mph 26.5 mph N/A   Overcast
9:15 PM 44.1 °F 36.8 °F 29.5 °F 57% 29.65 in 10.0 mi SW 16.1 mph 23.0 mph N/A   Overcast
9:35 PM 44.1 °F 36.8 °F 30.0 °F 58% 29.65 in 10.0 mi WSW 16.1 mph 20.7 mph N/A   Overcast
9:55 PM 44.2 °F 38.4 °F 30.6 °F 59% 29.64 in 10.0 mi SW 11.5 mph 23.0 mph N/A   Overcast
10:15 PM 44.4 °F 37.9 °F 31.1 °F 60% 29.63 in 10.0 mi WSW 13.8 mph 20.7 mph N/A   Overcast
10:35 PM 41.9 °F 35.9 °F 34.3 °F 75% 29.63 in 10.0 mi SW 10.4 mph - N/A Rain Light Rain
10:55 PM 43.0 °F 37.2 °F 34.9 °F 73% 29.62 in 10.0 mi WSW 10.4 mph - N/A   Overcast
11:15 PM 43.5 °F 37.9 °F 35.2 °F 73% 29.61 in 10.0 mi WSW 10.4 mph 16.1 mph N/A   Overcast
11:35 PM 44.6 °F 37.8 °F 35.4 °F 70% 29.61 in 10.0 mi West 15.0 mph 19.6 mph N/A   Overcast
11:55 PM 45.9 °F 40.4 °F 35.2 °F 66% 29.61 in 10.0 mi West 11.5 mph - N/A   Overcast